Regional Weather Roundup
Issued by NWS Sioux Falls, SD

Home | Current Version | Previous Version | Text Only | Print | Product List | Glossary On
Versions: 1 2 3 4 5 6 7 8 9 10 11 12 13 14 15 16 17 18 19 20 21 22 23 24 25 26 27 28 29 30 31 32 33 34 35 36 37 38 39 40 41 42 43 44 45 46 47 48 49 50
000
ASUS43 KFSD 200410
RWRFSD

WEATHER ROUNDUP FOR SE SOUTH DAKOTA/SW MINNESOTA/NW IOWA
NATIONAL WEATHER SERVICE SIOUX FALLS SD
1000 PM CST FRI DEC 19 2014

NOTE: "FAIR" INDICATES FEW OR NO CLOUDS BELOW 12,000 FEET WITH NO
SIGNIFICANT WEATHER AND OR OBSTRUCTIONS TO VISIBILITY.


SDZ038>040-050-052>070-200500-
SOUTHEAST SOUTH DAKOTA

CITY           SKY/WX    TMP DP  RH WIND       PRES   REMARKS
CHAMBERLAIN    FOG       18  17  94 E5        29.99F VSB 3/4 WCI  11
HURON          CLOUDY    29  26  89 S15       30.03S FOG     WCI  18
MADISON        CLOUDY    28  28 100 S17       30.04R WCI  16
MITCHELL       CLOUDY    30  27  88 S14       30.04F WCI  19
SIOUX FALLS    CLOUDY    31  28  89 S13       30.07F WCI  21
WINNER         FAIR      28  22  78 SW8       29.98S WCI  20
YANKTON        CLOUDY    34  28  80 S6        30.07F WCI  29
$$

MNZ071-072-080-081-089-090-097-098-200500-
SOUTHWEST MINNESOTA

CITY           SKY/WX    TMP DP  RH WIND       PRES   REMARKS
FAIRMONT       CLOUDY    30  25  80 S10       30.13S WCI  21
JACKSON        CLOUDY    32  28  86 S8        30.11S WCI  25
LUVERNE        CLOUDY    32  30  93 S10       30.09S FOG     WCI  24
MARSHALL       CLOUDY    30  27  86 S10       30.08S WCI  21
MONTEVIDEO     CLOUDY    30  30 100 SW9       30.08S FOG     WCI  22
PIPESTONE      CLOUDY    30  28  93 S6        30.05S FOG     WCI  24
REDWOOD FALLS  CLOUDY    32  28  85 S9        30.10F WCI  24
TRACY          CLOUDY    32  29  90 S7G17     30.08S WCI  25
WINDOM         CLOUDY    30  28  93 S8        30.10S WCI  23
WORTHINGTON    CLOUDY    30  27  86 S13       30.10R WCI  20
$$

IAZ001>003-012>014-020>022-031-032-NEZ013-014-SDZ071-200500-
NORTHWEST IOWA

CITY           SKY/WX    TMP DP  RH WIND       PRES   REMARKS
CHEROKEE       CLOUDY    31  30  95 S7        30.13R FOG     WCI  24
DENISON        CLOUDY    30  30 100 S10       30.12S FOG     WCI  21
ESTHERVILLE    CLOUDY    30  29  96 S10       30.12R FOG     WCI  21
LE MARS        CLOUDY    32  30  93 S9        30.11S WCI  24
ORANGE CITY    CLOUDY    32  28  86 S7        30.10S FOG     WCI  26
SHELDON        CLOUDY    30  30 100 S13       30.10R WCI  20
SIOUX CITY     CLOUDY    33  29  85 SE8       30.11S WCI  26
SPENCER        CLOUDY    32  27  81 S14       30.12R WCI  22
STORM LAKE     CLOUDY    30  28  93 S13       30.12S WCI  20
$$

ABBREVIATIONS USED IN REMARKS
   TC - TEMPERATURE IN CELSIUS
  WCI - WIND CHILL INDEX
   HX - HEAT INDEX
  VSB - VISIBILITY




USA.gov is the U.S. government's official web portal to all federal, state and local government web resources and services.